| time (UTC) | temp F | wind direction | speed MPH | gust MPH | rain 1hr in | rain 24hr in | rain mn in | humidity % | barometer mb |
| 20260505010815 | 77 | 158 | 3.0 | 4.0 | 0.00 | 0.00 | 0.00 | 69 | 1006.0 |
| 20260505004805 | 78 | 162 | 4.0 | 8.0 | 0.00 | 0.00 | 0.00 | 67 | 1006.0 |
| 20260505003825 | 78 | 168 | 3.0 | 7.0 | 0.00 | 0.00 | 0.00 | 67 | 1006.4 |
| 20260505002826 | 79 | 157 | 5.0 | 9.0 | 0.00 | 0.00 | 0.00 | 66 | 1006.0 |
| 20260505001808 | 79 | 165 | 4.0 | 8.0 | 0.00 | 0.00 | 0.00 | 66 | 1006.0 |
| 20260505000837 | 79 | 169 | 3.0 | 7.0 | 0.00 | 0.00 | 0.00 | 65 | 1006.4 |
| 20260504234826 | 80 | 157 | 4.0 | 9.0 | 0.00 | 0.00 | 0.00 | 64 | 1006.7 |
| 20260504233822 | 80 | 170 | 4.0 | 8.0 | 0.00 | 0.00 | 0.00 | 62 | 1006.7 |
| 20260504232812 | 81 | 181 | 4.0 | 9.0 | 0.00 | 0.00 | 0.00 | 62 | 1006.4 |
| 20260504230806 | 81 | 161 | 5.0 | 10.0 | 0.00 | 0.00 | 0.00 | 62 | 1006.7 |
| 20260504225839 | 81 | 162 | 5.0 | 8.0 | 0.00 | 0.00 | 0.00 | 61 | 1006.7 |
| 20260504224846 | 81 | 161 | 6.0 | 10.0 | 0.00 | 0.00 | 0.00 | 61 | 1007.1 |
| 20260504223839 | 81 | 178 | 4.0 | 8.0 | 0.00 | 0.00 | 0.00 | 59 | 1007.1 |
| 20260504221806 | 81 | 165 | 6.0 | 11.0 | 0.00 | 0.00 | 0.00 | 59 | 1007.1 |
| 20260504220808 | 81 | 153 | 5.0 | 10.0 | 0.00 | 0.00 | 0.00 | 59 | 1007.4 |
| 20260504215808 | 81 | 157 | 5.0 | 10.0 | 0.00 | 0.00 | 0.00 | 59 | 1007.1 |
| 20260504214824 | 81 | 166 | 6.0 | 11.0 | 0.00 | 0.00 | 0.00 | 60 | 1007.4 |
| 20260504213815 | 82 | 158 | 4.0 | 8.0 | 0.00 | 0.00 | 0.00 | 59 | 1007.4 |
| 20260504211819 | 82 | 166 | 6.0 | 10.0 | 0.00 | 0.00 | 0.00 | 58 | 1007.7 |
| 20260504210842 | 82 | 165 | 5.0 | 10.0 | 0.00 | 0.00 | 0.00 | 58 | 1007.7 |
| 20260504205826 | 82 | 165 | 5.0 | 16.0 | 0.00 | 0.00 | 0.00 | 57 | 1008.1 |
| 20260504204813 | 83 | 173 | 3.0 | 6.0 | 0.00 | 0.00 | 0.00 | 56 | 1008.1 |
| 20260504203828 | 83 | 163 | 6.0 | 9.0 | 0.00 | 0.00 | 0.00 | 57 | 1008.4 |
| 20260504202835 | 82 | 166 | 4.0 | 10.0 | 0.00 | 0.00 | 0.00 | 57 | 1008.4 |
| 20260504200814 | 82 | 159 | 6.0 | 9.0 | 0.00 | 0.00 | 0.00 | 57 | 1008.8 |
| 20260504195824 | 82 | 166 | 5.0 | 10.0 | 0.00 | 0.00 | 0.00 | 58 | 1009.4 |
| 20260504194814 | 82 | 163 | 5.0 | 9.0 | 0.00 | 0.00 | 0.00 | 58 | 1009.8 |
| 20260504193816 | 82 | 167 | 4.0 | 8.0 | 0.00 | 0.00 | 0.00 | 58 | 1009.4 |
| 20260504191838 | 80 | 163 | 4.0 | 9.0 | 0.00 | 0.00 | 0.00 | 61 | 1009.8 |
| 20260504184817 | 80 | 155 | 5.0 | 9.0 | 0.00 | 0.00 | 0.00 | 60 | 1010.1 |
| 20260504183830 | 79 | 157 | 6.0 | 11.0 | 0.00 | 0.00 | 0.00 | 59 | 1010.4 |
| 20260504182832 | 79 | 161 | 5.0 | 11.0 | 0.00 | 0.00 | 0.00 | 61 | 1010.4 |
| 20260504181836 | 79 | 161 | 4.0 | 7.0 | 0.00 | 0.00 | 0.00 | 59 | 1010.4 |
| 20260504175841 | 78 | 172 | 6.0 | 12.0 | 0.00 | 0.00 | 0.00 | 60 | 1011.1 |
| 20260504173834 | 78 | 164 | 4.0 | 10.0 | 0.00 | 0.00 | 0.00 | 60 | 1011.5 |
| 20260504171841 | 77 | 165 | 5.0 | 9.0 | 0.00 | 0.00 | 0.00 | 62 | 1011.5 |
| 20260504150810 | 70 | 166 | 6.0 | 10.0 | 0.00 | 0.00 | 0.00 | 68 | 1012.8 |
| 20260504140832 | 68 | 162 | 6.0 | 10.0 | 0.00 | 0.00 | 0.00 | 74 | 1012.8 |
| 20260504080821 | 62 | 140 | 3.0 | 5.0 | 0.00 | 0.00 | 0.00 | 74 | 1014.2 |
| 20260504045821 | 64 | 141 | 0.0 | 1.0 | 0.00 | 0.00 | 0.00 | 68 | 1015.9 |
| 20260504044841 | 65 | 146 | 1.0 | 3.0 | 0.00 | 0.00 | 0.00 | 66 | 1015.9 |
| 20260504043848 | 66 | 154 | 1.0 | 4.0 | 0.00 | 0.00 | 0.00 | 65 | 1015.9 |
| 20260504041823 | 66 | 147 | 1.0 | 4.0 | 0.00 | 0.00 | 0.00 | 63 | 1016.2 |
| 20260504040813 | 67 | 150 | 1.0 | 5.0 | 0.00 | 0.00 | 0.00 | 61 | 1016.2 |
| 20260504035849 | 67 | 148 | 1.0 | 3.0 | 0.00 | 0.00 | 0.00 | 61 | 1016.2 |
| 20260504034821 | 68 | 146 | 1.0 | 5.0 | 0.00 | 0.00 | 0.00 | 60 | 1016.2 |
| 20260504033821 | 68 | 150 | 1.0 | 6.0 | 0.00 | 0.00 | 0.00 | 59 | 1016.2 |
| 20260504032823 | 69 | 157 | 2.0 | 4.0 | 0.00 | 0.00 | 0.00 | 58 | 1015.9 |
| 20260504031836 | 69 | 149 | 2.0 | 4.0 | 0.00 | 0.00 | 0.00 | 57 | 1016.2 |
| 20260504030819 | 70 | 163 | 3.0 | 7.0 | 0.00 | 0.00 | 0.00 | 55 | 1016.2 |
| 20260504025823 | 70 | 156 | 2.0 | 6.0 | 0.00 | 0.00 | 0.00 | 53 | 1015.9 |
| 20260504023826 | 70 | 147 | 2.0 | 5.0 | 0.00 | 0.00 | 0.00 | 52 | 1015.9 |
| 20260504022826 | 71 | 147 | 2.0 | 5.0 | 0.00 | 0.00 | 0.00 | 50 | 1015.9 |
| 20260504021837 | 71 | 145 | 2.0 | 3.0 | 0.00 | 0.00 | 0.00 | 49 | 1015.9 |
| 20260504020822 | 72 | 156 | 3.0 | 5.0 | 0.00 | 0.00 | 0.00 | 48 | 1015.9 |
| 20260504014806 | 73 | 150 | 2.0 | 4.0 | 0.00 | 0.00 | 0.00 | 45 | 1015.9 |
| 20260504012848 | 73 | 145 | 2.0 | 4.0 | 0.00 | 0.00 | 0.00 | 43 | 1015.9 |
| 20260504011827 | 74 | 155 | 2.0 | 5.0 | 0.00 | 0.00 | 0.00 | 43 | 1015.2 |